Location: Red Deer
(52.2681°N, 113.8112°W)
Time: 00:16:05
(UTC-06:00)

QB50P2 - Pass Details

Date: 22 May 2022
Orbit: 589 x 607 km, 97.9° (Epoch: 27 June)

Event Time Altitude Azimuth Distance (km) Brightness Sun altitude
Rises 04:40:29 0° 2° (N) 2,843 ? -6.5°
Reaches altitude 10° 04:43:21 10° 341° (NNW) 1,933 ? -6.2°
Maximum altitude 04:45:52 16° 304° (WNW) 1,583 ? -6.0°
Drops below altitude 10° 04:48:23 10° 266° (W) 1,922 ? -5.7°
Enters shadow 04:50:03 - 252° (WSW) 2,411 ? -5.5°
